Winnerscup USA - inventory / physical / chip check

Station: hand scan - T Race

Distance: 1 Miles

Release: 01-Dec-2017 10:10

Weather Release:    Arrival:

Wind at Release:     Wind at Arrival:

Temp at Release: °    Temp at Arrival: °

Lofts: 53

Birds: 306

Clocked: 303

Good Luck to Everyone!
Drops Pos Breeder Pigeon Name Color Sex Ent Arrival Speed To Win Eligible ABC
1 Hi-Cal Connection - CA 0773-AU17-HAWI My Pick BB H 1 10:27:46.00 11.911 00:00:00 Yes
2 Sexton's Loft - IA 31778-AU17-AA The Right Direction BC H 1 10:28:28.00 11.855 00:00:42 Yes
3 Canto & Wiltz - MA 10977-AU17-AA Tanker BB C 1 10:29:00.00 11.812 00:01:14 Hold
4 Racing Pigeon Mall - WA 0714-AU17-RPM Main Asset BB C 1 10:29:41.00 11.758 00:01:55 Yes
5 A D L Loft - IL 0192-AU17-ADL Over Achiever BBWF C 1 10:30:20.00 11.707 00:02:34 Yes
6 A P C Loft - TX 17296-AU17-APC No Doubt GR C 1 10:31:09.00 11.644 00:03:23 Yes
7 Daehn/Miele - FL 3834-AU17-FOYS Time Toy GR C 1 10:31:36.00 11.609 00:03:51 Yes
8 Daehn/Miele - FL 3833-AU17-FOYS DriftWood GR C 2 10:31:58.00 11.581 00:04:13 Yes
9 Tar Syndicate - PA 7974-AU17-TAR Cloud 74 VELV C 1 10:32:38.00 11.531 00:04:52 Yes
10 John Partridge - CA 0619-AU17-PASO Moon Twister BC H 1 10:33:07.00 11.495 00:05:21 Yes
11 Joe Zarachowicz - MD 2270-AU17-CCC Shooter BB C 1 10:33:41.00 11.452 00:05:55 Yes
12 Nesneb Racing Loft - AL 17141-AU17-MOB In The Money BB H 1 10:34:10.00 11.416 00:06:24 Yes
13 Hollywood Lou Loft - FL 0063-AU17-LOU The Celebrity BB C 1 10:41:10.00 10.920 00:13:25 Yes
14 Jack's Loft - CA 36711-AU17-ARPU Alamaar RGRZ H 1 10:41:37.00 10.890 00:13:51 Yes
15 Tar Syndicate - PA 7815-AU17-TAR Packer BB H 2 10:41:59.00 10.865 00:14:14 Yes
16 Larry Lewis - OK 8163-AU17-TRPC Follow The Money BC C 1 10:43:37.00 10.757 00:15:51 Yes
17 Sexton's Loft - IA 31770-AU17-AA PotaGold BB C 2 10:44:23.00 10.707 00:16:37 Yes
18 Sofija Loft - IL 0013-AU17-BEKO Koridor-Žila Kucavica BBPD C 1 10:44:58.00 10.669 00:17:12 Yes
19 Jimmy Zheng Loft - MS 0680-AU17-ZHNG Emperors Deciple BC C 1 10:45:21.00 10.644 00:17:35 Yes
20 Sienna Loft - NC 36787-AU17-AA Suzie Q RP H 1 10:46:49.00 10.551 00:19:03 Yes
21 Spirit In The Sky - IL 0371-AU17-LCC John Paul BB C 1 10:47:12.00 10.526 00:19:27 Yes
22 Canto & Wiltz - MA 10998-AU17-AA Orbitaar BB C 2 10:47:33.00 10.504 00:19:48 Yes
23 Ganus Family Loft - IN 0295-AU17-GFL Delerionn BC H 1 10:48:13.00 10.463 00:20:27 Yes
24 Jack's Loft - CA 36718-AU17-ARPU Britanny GR H 2 10:48:38.00 10.437 00:20:52 Yes
25 Champ Camp - IN 0236-AU17-CHMP Classic Tipp BBWF C 1 10:49:21.00 10.393 00:21:35 Yes
26 New Era Loft - PA 11621-AU17-ARPU ShowPiece SIL C 1 10:49:45.00 10.368 00:21:59 Yes
27 Racing Pigeon Mall - WA 0713-AU17-RPM Gotta Take Notice BB C 2 10:50:12.00 10.341 00:22:26 Yes
28 Tar Syndicate - PA 7813-AU17-TAR Compilation BB C 3 10:50:43.00 10.309 00:22:58 Yes
29 Goshentown Lofts - TN 1784-AU17-NPA RollerBall BB C 1 10:51:11.00 10.281 00:23:26 Yes
30 Aurelio Aranda - AZ 42210-AU17-AA SHREK BBWF C 1 10:51:41.00 10.251 00:23:56 Yes
31 Sienna Loft - NC 36811-AU17-AA Big Blue BB C 2 10:52:09.00 10.224 00:24:23 Yes
32 Joe Zarachowicz - MD 2284-AU17-CCC Never Too Late GR C 2 10:52:31.00 10.202 00:24:45 Yes
33 Daehn/Miele - FL 3837-AU17-FOYS French Braid BB H 3 10:53:07.00 10.167 00:25:21 Yes
34 Crescendo Loft - NM 18441-AU17-AA Horizon Echo BB C 1 10:53:34.00 10.140 00:25:48 Yes
35 Champ Camp - IN 0265-AU17-CHMP Hell Fire BWFP C 2 10:53:55.00 10.120 00:26:09 Yes
36 Champ Camp - IN 0275-AU17-CHMP Scirrocco BB H 3 10:54:28.00 10.088 00:26:42 Yes
37 Daehn/Miele - FL 3839-AU17-FOYS Melany BB H 4 10:54:56.00 10.061 00:27:10 Yes
38 Hollywood Lou Loft - FL 0056-AU17-LOU Escapade BC C 2 10:55:18.00 10.040 00:27:32 Yes
39 Johnny's Automotive - CA 32923-AU17-JEDD Inge's Story BB H 1 10:55:37.00 10.022 00:27:51 Yes
40 Bieche-Stevenson - CA 7477-AU17-BIEC Second Opinion BB C 1 10:56:10.00 9.991 00:28:24 Yes
41 P/R Loft - CA 0280-AU17-GSF The Puritan BC C 1 10:56:41.00 9.961 00:28:56 Yes
42 Jimmy Zheng Loft - MS 0699-AU17-ZHNG Super Crack Again BB H 2 10:57:06.00 9.938 00:29:20 Yes
43 A B C Loft2 - NY 11768-AU17-ARPU Chances Are BB H 1 10:57:36.00 9.910 00:29:50 Yes
44 Larry Lewis - OK 8151-AU17-TRPC Only Hope BC H 2 10:57:57.00 9.890 00:30:12 Yes
45 Sexton's Loft - IA 31777-AU17-AA Possible Witness BC C 3 10:59:06.00 9.827 00:31:20 Yes
46 Nesneb Racing Loft - AL 17142-AU17-MOB Cash Master BC H 2 10:59:48.00 9.789 00:32:02 Yes
47 Hollywood Lou Loft - FL 0061-AU17-LOU Brilliance BB C 3 11:00:06.00 9.772 00:32:21 Yes
48 Racing Pigeon Mall - WA 0725-AU17-RPM Rizer BC C 3 11:00:43.00 9.739 00:32:57 Yes
49 Racing Pigeon Mall - WA 0716-AU17-RPM Chariot BROZ C 4 11:01:13.00 9.712 00:33:27 Yes
50 Sexton's Loft - IA 31788-AU17-AA Under Achiever BC H 4 11:01:33.00 9.694 00:33:48 Yes
51 G & L Loft - OR 2395-AU17-WPC Brick House RC H 1 11:02:04.00 9.667 00:34:18 Yes
52 Huan Qiu Zhang - NC 1704-AU17-JNC New Money BC C 1 11:02:25.00 9.648 00:34:40 Hold
53 Daehn/Miele - FL 3832-AU17-FOYS Redefined Exit BC C 5 11:53:45.00 7.529 01:26:00 Yes
54 Bieche-Stevenson - CA 7497-AU17-BIEC Maximus BB C 2 11:54:08.00 7.517 01:26:22 Yes
55 G & L Loft - OR 2394-AU17-WPC Affirmation BB C 2 11:55:25.00 7.476 01:27:39 Yes
56 A B C Loft2 - NY 11771-AU17-ARPU Etherium BB C 2 11:55:52.00 7.462 01:28:06 Yes
57 A B C Loft2 - NY 59759-AU17-ARPU Cleopatra BC H 3 11:56:15.00 7.450 01:28:29 Yes
58 Sienna Loft - NC 36772-AU17-AA The General BB C 3 11:56:37.00 7.438 01:28:52 Yes
59 Jack's Loft - CA 36720-AU17-ARPU Top Choice BC H 3 11:57:08.00 7.422 01:29:22 Yes
60 Sexton's Loft - IA 31790-AU17-AA Instant Pleasure BC H 5 11:57:40.00 7.405 01:29:55 Yes
61 Champ Camp - IN 0225-AU17-CHMP Point Well Taken BB C 4 11:58:06.00 7.392 01:30:20 Yes
62 Sexton's Loft - IA 31766-AU17-AA Adverse Condition BB C 6 11:58:31.00 7.379 01:30:45 Yes
63 Tar Syndicate - PA 7976-AU17-TAR Game to Win DC C 4 11:58:59.00 7.365 01:31:12 Yes
64 Red Ass Ranch - TX 0154-AU17-RAR I Am One BC H 1 11:59:19.00 7.354 01:31:34 Yes
65 Jack's Loft - CA 4397-AU17-FOYS Shawnee BBPD C 4 12:00:04.00 7.331 01:32:19 Yes
66 Racing Pigeon Mall - WA 0724-AU17-RPM Bet America BB C 5 12:00:27.00 7.320 01:32:40 Yes
67 Dream Team - VT 0421-AU17-JCZL National One BC C 1 12:00:54.00 7.306 01:33:08 Yes
68 Ken Easley-Silvercreek - NM 5125-AU17-ESLY Bernadette CP H 1 12:01:18.00 7.294 01:33:32 Hold
69 Joe Zarachowicz - MD 2272-AU17-CCC Legacy BB C 3 12:02:10.00 7.268 01:34:24 Yes
70 1-Tonyloft - VA 0676-AU17-ZHNG National Power BWFP C 1 12:02:31.00 7.257 01:34:46 Yes
71 Bieche-Stevenson - CA 7386-AU17-BIEC By Design BC C 3 12:03:05.00 7.240 01:35:20 Yes
72 Johnny's Automotive - CA 32922-AU17-JEDD Foolish Cloud BB C 2 12:04:28.00 7.199 01:36:43 Yes
73 Aurelio Aranda - AZ 42214-AU17-AA ARMALITE DCWF C 2 12:04:50.00 7.189 01:37:03 Yes
74 Sexton's Loft - IA 31772-AU17-AA Airflow Research BC C 7 12:05:30.00 7.169 01:37:44 Yes
75 Jack's Loft - CA 4394-AU17-FOYS Constant Chaos BC C 5 12:06:00.00 7.154 01:38:15 Yes
76 Jack's Loft - CA 36716-AU17-ARPU The Magician GR C 6 12:06:19.00 7.145 01:38:34 Yes
77 John Partridge - CA 0623-AU17-PASO Monet BBWF C 2 12:06:51.00 7.130 01:39:05 Yes
78 Daehn/Miele - FL 3840-AU17-FOYS Steady Freddie BB C 6 12:07:17.00 7.117 01:39:32 Yes
79 Joe Zarachowicz - MD 2261-AU17-CCC Castaway GR C 4 12:07:41.00 7.106 01:39:55 Yes
80 Jack's Loft - CA 4398-AU17-FOYS Boyz Chance BB H 7 12:08:08.00 7.093 01:40:22 Yes
81 Jack's Loft - CA 4393-AU17-FOYS Today's Hero SIL C 8 12:08:39.00 7.078 01:40:54 Yes
82 Nesler Boyz - CA 1766-AU17-TCH Secret Window BB H 1 12:09:39.00 7.050 01:41:53 Yes
83 Bolgar Loft - CA 7625-AU17-FTST NICHOLEYE BB C 1 12:10:07.00 7.037 01:42:21 Yes
84 Ken Easley-Silvercreek - NM 5162-AU17-ESLY Aleksi BB C 2 12:10:30.00 7.026 01:42:44 Hold
85 Prout Lofts - CA 0057-AU17-PRT Privileged Few BCP C 1 12:11:12.00 7.006 01:43:27 Yes
86 Hosanna Lofts - OK 35982-AU17-ARPU Flicka BB C 1 12:11:48.00 6.990 01:44:02 Yes
87 Sexton's Loft - IA 31762-AU17-AA Ladesma BC H 8 12:12:10.00 6.980 01:44:23 Yes
88 Bieche-Stevenson - CA 7494-AU17-BIEC Carmela BC H 4 12:12:30.00 6.970 01:44:45 Yes
89 New Era Loft - PA 11625-AU17-ARPU Let It Be Told RC C 2 12:13:42.00 6.937 01:45:57 Yes
90 Johnny's Automotive - CA 32890-AU17-JEDD Pimlico BB H 3 12:14:07.00 6.926 01:46:21 Yes
91 Ken Easley-Silvercreek - NM 5151-AU17-ESLY Sune Echo BB C 3 12:14:29.00 6.916 01:46:43 Hold
92 Ganus Family Loft - IN 0292-AU17-GFL Planet Icon BC H 2 12:15:05.00 6.900 01:47:19 Yes
93 Dream Team - VT 0832-AU17-JCZL War Eagle BWFP C 2 12:15:45.00 6.882 01:47:59 Yes
94 Hollywood Lou Loft - FL 0059-AU17-LOU Magma BBPD H 4 12:16:33.00 6.860 01:48:48 Yes
95 Canto & Wiltz - MA 10996-AU17-AA Atomique BB H 3 12:16:57.00 6.850 01:49:10 Hold
96 Hollywood Lou Loft - FL 0062-AU17-LOU Midnite Lace BB H 5 12:17:27.00 6.836 01:49:42 Yes
97 Walstons Warriors - NC 7407-AU17-GL Geronimo BB C 1 12:17:50.00 6.826 01:50:05 Yes
98 Jack's Loft - CA 36719-AU17-ARPU Mas Arena BC C 9 12:18:44.00 6.802 01:50:59 Yes
99 A D L Loft - IL 0168-AU17-ADL Maverick BB H 2 12:19:18.00 6.788 01:51:31 Yes
100 Champ Camp - IN 0240-AU17-CHMP Iron Mike BB C 5 12:19:43.00 6.777 01:51:56 Yes

There are 312 bird records

Note: These Race Results are unofficial and subject to change until verified by the Race Committee and declared final.